Content
SEND FEEDBACK

Daily
Averages
Monthly
Summary
United Kingdom

SHEERNESS, ENGLAND


Home > Europe > United Kingdom > England
Elevation: 82 feet     Latitude: 51 27N     Longitude: 000 45E

WEATHER
 
SELECT A DAY
Number of Records: 210,514;   Date Range: 7/1/96 - 7/20/14
 
SHARE

PRINT THIS DATA

[ ← Previous Day ]
WEATHER ALMANAC - SEPTEMBER 28, 2013
[ Next Day → ]
[ °C ]   °F
Weather ElementAverageHighLow
Temperature59.6 °F66.2 °F (1:20 pm)55.4 °F (1:50 am)
Dewpoint52.3 °F57.2 °F (11:50 am)50 °F (1:50 am)
Humidity77 %88 % (2:50 am)63 % (2:20 pm)
Barometer29.83 in29.92 in (1:50 am)29.77 in (11:50 pm)
Wind Speed11.7 mph17.3 mph (3:20 pm)
Weather ElementAverage
Visibility5.2 mi
Wind DirectionENE (79 °)

Weather ElementTotal
Precipitation---
Heating Degree Days4.2 (Base 65)
Growing Degree Days10.8 (Base 50)
Averaged from 42 records on September 28, 2013
WEATHER CONDITIONS BREAKOUT
WIND DIRECTION BREAKOUT
WEATHER BY HOUR - SEPTEMBER 28, 2013
[ °C ]   °F
Local TimeTemperatureDewpointHumidityBarometerVisibilityWind DirectionWind SpeedGust SpeedPrecipitationEventsConditions
1:50 AM55.4 °F50.0 °F82 %29.92 in4.3 miEast (90°)5.8 mph
2:50 AM55.4 °F51.8 °F88 %29.89 in4.3 miEast (80°)6.9 mph
3:50 AM55.4 °F51.8 °F88 %29.86 in4.3 miEast (80°)8.1 mph
4:50 AM57.2 °F51.8 °F82 %29.86 in4.3 miEast (80°)9.2 mph
5:20 AM55.4 °F51.8 °F88 %29.86 in5.0 miEast (80°)8.1 mph
5:50 AM55.4 °F51.8 °F88 %29.83 in5.6 miEast (90°)6.9 mph
6:20 AM55.4 °F51.8 °F88 %29.83 inEast (90°)6.9 mphClear
6:50 AM57.2 °F51.8 °F82 %29.83 in5.6 miENE (70°)4.6 mph
7:20 AM55.4 °F51.8 °F88 %29.83 in5.6 miEast (90°)5.8 mph
7:50 AM57.2 °F53.6 °F88 %29.83 in5.6 miEast (90°)9.2 mph
8:20 AM57.2 °F53.6 °F88 %29.83 in5.6 miEast (90°)6.9 mph
8:50 AM59.0 °F55.4 °F88 %29.86 inEast (90°)9.2 mphClear
9:20 AM60.8 °F53.6 °F77 %29.86 inEast (80°)12.7 mphClear
9:50 AM60.8 °F55.4 °F82 %29.86 inEast (80°)13.8 mphClear
10:20 AM62.6 °F55.4 °F77 %29.86 inEast (80°)13.8 mphClear
10:50 AM62.6 °F55.4 °F77 %29.86 in5.6 miEast (80°)16.1 mph
11:20 AM62.6 °F55.4 °F77 %29.83 in5.6 miEast (80°)15.0 mphPartly Cloudy
11:50 AM64.4 °F57.2 °F77 %29.83 in5.6 miEast (80°)15.0 mphPartly Cloudy
12:20 PM62.6 °F55.4 °F77 %29.83 in5.6 miEast (80°)16.1 mphPartly Cloudy
12:50 PM62.6 °F55.4 °F77 %29.83 in5.6 miENE (70°)16.1 mph
1:20 PM66.2 °F55.4 °F68 %29.83 in5.6 miEast (80°)15.0 mph
1:50 PM64.4 °F53.6 °F68 %29.83 inENE (70°)16.1 mphClear
2:20 PM62.6 °F50.0 °F63 %29.83 inENE (70°)16.1 mphClear
2:50 PM62.6 °F50.0 °F63 %29.80 inENE (70°)15.0 mphClear
3:20 PM60.8 °F50.0 °F68 %29.83 inENE (70°)17.3 mphClear
3:50 PM60.8 °F50.0 °F68 %29.80 inENE (70°)15.0 mphClear
4:20 PM60.8 °F51.8 °F72 %29.80 inENE (70°)16.1 mphClear
4:50 PM60.8 °F50.0 °F68 %29.80 inENE (70°)17.3 mphClear
5:20 PM60.8 °F50.0 °F68 %29.80 inENE (70°)16.1 mphClear
5:50 PM60.8 °F51.8 °F72 %29.80 inEast (80°)10.4 mphClear
6:20 PM59.0 °F51.8 °F77 %29.80 inEast (80°)12.7 mphClear
6:50 PM59.0 °F51.8 °F77 %29.80 inEast (80°)11.5 mphClear
7:20 PM60.8 °F51.8 °F72 %29.80 inENE (70°)11.5 mphClear
7:50 PM59.0 °F50.0 °F72 %29.80 inEast (80°)10.4 mphClear
8:20 PM59.0 °F51.8 °F77 %29.80 inEast (80°)10.4 mphClear
8:50 PM60.8 °F51.8 °F72 %29.80 inEast (80°)9.2 mphClear
9:20 PM59.0 °F50.0 °F72 %29.80 inEast (90°)11.5 mphClear
9:50 PM60.8 °F50.0 °F68 %29.80 inEast (90°)8.1 mphClear
10:20 PM59.0 °F51.8 °F77 %29.80 inEast (90°)12.7 mphClear
10:50 PM59.0 °F50.0 °F72 %29.80 inEast (80°)11.5 mphClear
11:20 PM57.2 °F50.0 °F77 %29.80 inENE (70°)10.4 mphClear
11:50 PM57.2 °F51.8 °F82 %29.77 inENE (60°)11.5 mphClear
Hourly data recorded from EGMC, located miles away from Sheerness, England







STORIES FROM OUR PARTNERS